Location: Augustenthal
(51.7167°N, 10.2833°E)
Time: 08:10:22
(UTC+00:00)

EO 1 Del DPAF - Pass Details

Date: 18 May 2021
Orbit: 505 x 510 km, 98.0° (Epoch: 15 June)

Event Time Altitude Azimuth Distance (km) Brightness Sun altitude
Rises 23:39:32 0° 16° (NNE) 2,627 8.4 -18.3°
Reaches altitude 10° 23:41:39 10° 20° (NNE) 1,735 7.0 -18.3°
Maximum altitude 23:45:22 64° 102° (ESE) 569 3.3 -18.2°
Enters shadow 23:46:16 45° 161° (SSE) 696 3.4 -18.2°
